Tracking 18942 objects as of 18-Jan-2018
HD Live streaming from Space Station
objects crossing your sky now

GSAT 3 (EDUSAT)

Track GSAT 3 (EDUSAT) now!
GSAT 3 (EDUSAT) is classified as:


NORAD ID: 28417
Int'l Code: 2004-036A
Perigee: 36,062.4 km
Apogee: 36,091.4 km
Inclination: 5.6 °
Period: 1,450.6 minutes
Semi major axis: 42447 km
RCS: 15.8866 m2 (large)
Launch date: September 20, 2004
Source: India (IND)
Launch site: SRIHARIKOTA (SRI)

Interactive education for remote areas of India; 6 C-band and 6 Ku-band transponders; first satellite dedicated to education.
aabbcc
Your satellite tracking list
Your tracking list is empty




NASA's NSSDC Master Catalog

Two Line Element Set (TLE):
1 28417U 04036A   18017.45333420 -.00000310 +00000-0 +00000-0 0  9991
2 28417 005.5701 060.7449 0003421 205.0498 158.4203 00.99270094048612
Source of the keplerian elements: AFSPC